TimeEST,TemperatureF,Dew PointF,Humidity,Sea Level PressureIn,VisibilityMPH,Wind Direction,Wind SpeedMPH,Gust SpeedMPH,PrecipitationIn,Events,Conditions,WindDirDegrees,DateUTC
12:53 AM,37.0,24.1,59,29.75,10.0,NNW,10.4,-,N/A,,Overcast,330,2013-03-02 05:53:00
1:53 AM,36.0,23.0,59,29.75,10.0,NNW,11.5,-,N/A,,Overcast,330,2013-03-02 06:53:00
2:53 AM,35.1,23.0,61,29.75,10.0,NW,10.4,-,N/A,,Overcast,320,2013-03-02 07:53:00
3:53 AM,35.1,21.9,59,29.76,10.0,NNW,8.1,-,N/A,,Overcast,330,2013-03-02 08:53:00
4:53 AM,34.0,21.9,61,29.76,10.0,NW,5.8,-,N/A,,Overcast,320,2013-03-02 09:53:00
5:53 AM,34.0,21.9,61,29.75,10.0,NNW,10.4,-,N/A,,Overcast,330,2013-03-02 10:53:00
6:53 AM,34.0,21.9,61,29.76,10.0,NNW,8.1,-,N/A,,Overcast,340,2013-03-02 11:53:00
7:53 AM,35.1,21.9,59,29.76,10.0,NW,8.1,-,N/A,,Overcast,320,2013-03-02 12:53:00
8:53 AM,36.0,21.9,57,29.76,10.0,NNW,10.4,-,N/A,,Overcast,340,2013-03-02 13:53:00
9:53 AM,39.0,21.9,50,29.75,10.0,North,11.5,-,N/A,,Clear,360,2013-03-02 14:53:00
10:53 AM,39.9,21.9,49,29.74,10.0,North,9.2,-,N/A,,Overcast,360,2013-03-02 15:53:00
11:53 AM,39.0,21.9,50,29.73,10.0,North,8.1,-,N/A,,Overcast,350,2013-03-02 16:53:00
12:53 PM,39.0,21.9,50,29.72,10.0,NNW,8.1,-,N/A,,Overcast,340,2013-03-02 17:53:00
1:53 PM,39.0,21.9,50,29.71,10.0,NW,5.8,-,N/A,,Overcast,320,2013-03-02 18:53:00
2:53 PM,39.0,23.0,53,29.69,10.0,NNW,9.2,-,N/A,,Overcast,330,2013-03-02 19:53:00
3:53 PM,39.0,23.0,53,29.69,10.0,NW,9.2,-,N/A,,Overcast,320,2013-03-02 20:53:00
4:53 PM,37.9,23.0,55,29.70,10.0,WNW,10.4,18.4,N/A,,Overcast,300,2013-03-02 21:53:00
5:53 PM,37.9,23.0,55,29.71,10.0,NW,8.1,-,N/A,,Overcast,310,2013-03-02 22:53:00
6:53 PM,37.0,24.1,59,29.73,10.0,WNW,8.1,-,N/A,,Overcast,300,2013-03-02 23:53:00
8:53 PM,33.1,28.0,82,29.73,9.0,NW,10.4,17.3,0.00,,Overcast,310,2013-03-03 01:53:00
9:12 PM,32.0,28.4,87,29.73,2.0,WNW,8.1,17.3,0.00,Snow,Light Snow,300,2013-03-03 02:12:00
9:18 PM,32.0,28.4,87,29.73,3.0,WNW,8.1,-,0.00,Snow,Light Snow,300,2013-03-03 02:18:00
9:30 PM,32.0,28.4,87,29.73,2.5,NW,6.9,-,0.00,Snow,Light Snow,310,2013-03-03 02:30:00
9:37 PM,32.0,28.4,87,29.73,3.0,NW,8.1,-,0.00,Snow,Light Snow,310,2013-03-03 02:37:00
9:44 PM,32.0,28.4,87,29.73,2.5,NW,4.6,-,0.00,Snow,Light Snow,310,2013-03-03 02:44:00
9:53 PM,32.0,28.9,88,29.73,2.0,NW,8.1,-,0.00,Snow,Light Snow,310,2013-03-03 02:53:00
10:04 PM,32.0,28.4,87,29.73,2.5,NW,9.2,-,0.00,Snow,Light Snow,310,2013-03-03 03:04:00
10:16 PM,32.0,28.4,87,29.72,3.0,NW,9.2,-,0.00,Snow,Light Snow,310,2013-03-03 03:16:00
10:53 PM,30.9,28.0,89,29.72,6.0,WNW,10.4,-,0.00,,Overcast,300,2013-03-03 03:53:00
11:28 PM,30.2,28.4,93,29.71,10.0,NW,6.9,-,N/A,,Overcast,320,2013-03-03 04:28:00
11:36 PM,30.2,28.4,93,29.71,10.0,NW,9.2,-,N/A,,Overcast,320,2013-03-03 04:36:00
11:53 PM,30.9,28.0,89,29.72,10.0,NW,8.1,-,N/A,,Overcast,310,2013-03-03 04:53:00